Waarnemingen

Advertentie
Mijn weer
Geneve-Cointrin, Zwitserland (6700): temperatuur & dauwpunt: 19.05.2019 21:00:00 - 25.05.2019 21:00:00 (CEST)Geneve-Cointrin, Zwitserland (6700): temperatuur 5cm: 19.05.2019 21:00:00 - 25.05.2019 21:00:00 (CEST)Geneve-Cointrin, Zwitserland (6700): windsnelheid & windstoten: 19.05.2019 21:00:00 - 25.05.2019 21:00:00 (CEST)Geneve-Cointrin, Zwitserland (6700): windrichting: 19.05.2019 21:00:00 - 25.05.2019 21:00:00 (CEST)Geneve-Cointrin, Zwitserland (6700): luchtdruk: 19.05.2019 21:00:00 - 25.05.2019 21:00:00 (CEST)Geneve-Cointrin, Zwitserland (6700): zicht: 19.05.2019 21:00:00 - 25.05.2019 21:00:00 (CEST)Geneve-Cointrin, Zwitserland (6700): Zonneschijnduur: 19.05.2019 21:00:00 - 25.05.2019 21:00:00 (CEST)Geneve-Cointrin, Zwitserland (6700): neerslag: 19.05.2019 21:00:00 - 25.05.2019 21:00:00 (CEST)
Datum & Tijd tt [°C] td [°C] tt 5cm [°C] ff [km/u] ff [kn] fx [km/u] fx [kn] dd ppp [hPa] vv [km] sd [min] rr [mm]
25.05.2019 21:00:00 14,0 13,3 13,0 3 1 8 5 WNW 1017,0 - 0 0,0
25.05.2019 20:00:00 14,6 13,4 14,3 3 2 8 4 NNO 1016,9 16 2 0,0
25.05.2019 19:00:00 14,6 13,0 14,1 4 2 16 8 N 1016,7 - 0 2,1
25.05.2019 18:00:00 14,9 13,2 14,4 6 3 22 12 NNW 1016,2 - 0 0,1
25.05.2019 17:00:00 16,2 13,5 16,0 11 6 35 19 N 1015,4 15 1 2,7
25.05.2019 16:00:00 21,0 9,8 22,2 14 7 22 12 W 1013,5 - 0 0,0
25.05.2019 15:00:00 21,3 9,6 24,0 5 3 21 11 WNW 1013,8 - 20 0,0
25.05.2019 14:00:00 21,6 10,0 26,4 7 4 21 11 NNO 1014,1 25 9 0,0
25.05.2019 13:00:00 21,2 8,4 26,5 5 3 20 11 NW 1014,4 - 38 0,0
25.05.2019 12:00:00 20,8 9,1 29,8 11 6 23 13 NNO 1014,7 - 60 0,0
25.05.2019 11:00:00 20,7 10,3 27,5 6 3 15 8 NNO 1014,7 30 60 0,0
25.05.2019 10:00:00 17,9 8,9 23,2 5 3 11 6 O 1015,1 - 46 0,0
25.05.2019 09:00:00 16,7 10,9 23,5 2 1 5 3 ZW 1015,1 - 59 0,0
25.05.2019 08:00:00 13,6 9,5 13,4 3 1 7 4 NNO 1015,4 35 1 0,0
25.05.2019 07:00:00 12,8 9,5 11,9 1 1 4 2 NW 1015,3 - 0 0,0
25.05.2019 06:00:00 11,8 9,3 9,6 2 1 6 3 N 1015,0 - 0 0,0
25.05.2019 05:00:00 12,5 9,5 9,4 1 1 8 4 N 1014,6 - 0 0,0
25.05.2019 04:00:00 13,0 9,3 10,8 3 2 6 4 WZW 1014,4 - 0 0,0
25.05.2019 03:00:00 12,8 9,3 10,4 4 2 5 3 ZW 1014,4 - 0 0,0
25.05.2019 02:00:00 12,7 9,2 10,3 3 1 7 4 NNW 1014,7 - 0 0,0
25.05.2019 01:00:00 14,2 9,5 10,4 2 1 4 2 NW 1014,5 - 0 0,0
25.05.2019 00:00:00 15,6 9,2 11,5 2 1 5 3 ZW 1014,0 - 0 0,0
24.05.2019 23:00:00 16,0 8,9 11,7 2 1 8 4 WNW 1013,8 45 0 0,0
24.05.2019 22:00:00 16,1 9,7 12,1 4 2 8 5 NNW 1013,4 - 0 0,0
24.05.2019 21:00:00 17,7 9,5 15,3 5 3 18 10 NNO 1012,8 - 0 0,0
24.05.2019 20:00:00 19,0 9,4 17,4 8 4 18 10 ONO 1012,1 45 6 0,0
24.05.2019 19:00:00 20,9 8,4 22,2 9 5 23 12 NNW 1011,6 - 7 0,0
24.05.2019 18:00:00 20,3 9,8 20,5 5 3 35 19 NNW 1011,9 - 6 0,0
24.05.2019 17:00:00 21,9 8,9 22,1 13 7 22 12 NNO 1011,7 50 18 0,0
24.05.2019 16:00:00 23,2 7,2 28,5 9 5 16 9 NO 1011,7 - 60 0,0
24.05.2019 15:00:00 22,4 7,4 29,0 10 5 17 9 O 1012,2 - 60 0,0
24.05.2019 14:00:00 21,9 7,8 28,9 5 3 14 8 NO 1012,7 30 60 0,0
24.05.2019 13:00:00 20,4 6,3 28,9 4 2 16 9 NO 1013,6 - 60 0,0
24.05.2019 12:00:00 20,0 7,9 25,9 10 5 18 10 O 1014,0 - 60 0,0
24.05.2019 11:00:00 18,4 7,9 25,8 5 3 13 7 NO 1014,6 27 60 0,0
24.05.2019 10:00:00 16,7 9,9 23,6 3 2 8 4 NO 1015,1 - 60 0,0
24.05.2019 09:00:00 14,3 9,4 18,5 2 1 6 3 W 1015,6 - 27 0,0
24.05.2019 08:00:00 12,8 8,8 13,5 4 2 8 4 NNO 1015,8 35 9 0,0
24.05.2019 07:00:00 10,8 8,5 10,6 1 1 6 3 N 1016,2 - 12 0,0
24.05.2019 06:00:00 9,6 8,1 6,4 3 1 5 3 W 1016,1 - 0 0,0
24.05.2019 05:00:00 10,3 8,3 6,2 2 1 6 3 NNO 1015,7 - 0 0,0
24.05.2019 04:00:00 11,0 8,6 7,9 3 2 5 3 NNW 1015,6 - 0 0,0
24.05.2019 03:00:00 12,1 9,0 9,0 1 0 5 3 ZZW 1015,6 - 0 0,0
24.05.2019 02:00:00 12,3 9,0 8,3 2 1 4 2 N 1015,8 - 0 0,0
24.05.2019 01:00:00 13,0 9,3 8,7 1 1 4 2 N 1015,8 - 0 0,0
24.05.2019 00:00:00 13,9 9,3 9,1 3 2 5 3 NW 1015,6 - 0 0,0
23.05.2019 23:00:00 15,1 8,9 10,8 3 2 13 7 ONO 1015,5 40 0 0,0
23.05.2019 22:00:00 17,1 7,6 13,0 1 1 8 4 W 1014,8 - 0 0,0
23.05.2019 21:00:00 18,6 6,4 14,1 3 2 8 5 NO 1014,2 - 31 0,0
23.05.2019 20:00:00 20,8 4,5 20,1 6 3 14 8 NO 1013,7 50 54 0,0
23.05.2019 19:00:00 22,0 7,1 24,9 11 6 15 8 ONO 1013,6 - 60 0,0
23.05.2019 18:00:00 22,1 6,4 26,5 9 5 16 9 NNO 1013,9 - 60 0,0
23.05.2019 17:00:00 21,8 6,6 29,4 6 3 18 10 ONO 1014,2 50 60 0,0
23.05.2019 16:00:00 21,8 4,0 27,7 10 5 18 10 ONO 1014,9 - 60 0,0
23.05.2019 15:00:00 20,6 6,8 29,1 7 4 20 11 ONO 1015,7 - 60 0,0
23.05.2019 14:00:00 19,3 7,9 28,1 6 3 25 13 NNO 1016,3 45 60 0,0
23.05.2019 13:00:00 18,6 8,1 26,7 11 6 22 12 NO 1017,1 - 60 0,0
23.05.2019 12:00:00 17,7 7,4 25,5 15 8 22 12 NO 1017,8 - 60 0,0
23.05.2019 11:00:00 16,4 7,5 22,8 12 6 24 13 NO 1018,1 50 60 0,0
23.05.2019 10:00:00 14,9 6,7 21,0 14 8 22 12 NO 1018,6 - 60 0,0
23.05.2019 09:00:00 13,6 6,1 18,7 9 5 13 7 ONO 1018,9 - 60 0,0
23.05.2019 08:00:00 12,0 6,4 15,3 2 1 4 2 WZW 1019,2 50 60 0,0
23.05.2019 07:00:00 8,2 5,4 9,0 1 1 8 5 W 1019,8 - 26 0,0
23.05.2019 06:00:00 6,6 4,6 2,7 4 2 7 4 NW 1019,9 - 0 0,0
23.05.2019 05:00:00 7,0 4,7 3,3 1 1 5 3 NNW 1019,8 - 0 0,0
23.05.2019 04:00:00 8,1 5,1 4,0 2 1 6 4 W 1019,8 - 0 0,0
23.05.2019 03:00:00 8,4 5,2 5,0 5 3 7 4 WNW 1019,8 - 0 0,0
23.05.2019 02:00:00 9,1 4,9 5,5 3 2 7 4 NW 1019,7 - 0 0,0
23.05.2019 01:00:00 10,7 5,7 5,5 1 1 7 4 Z 1019,3 - 0 0,0
23.05.2019 00:00:00 11,5 5,8 5,7 5 3 8 5 NNW 1019,3 - 0 0,0
22.05.2019 23:00:00 12,5 6,0 7,2 3 2 11 6 N 1019,1 30 0 0,0
22.05.2019 22:00:00 15,0 6,3 9,2 3 2 13 7 ONO 1018,2 - 0 0,0
22.05.2019 21:00:00 16,8 5,8 12,9 5 3 18 10 N 1017,4 - 33 0,0
22.05.2019 20:00:00 19,6 5,8 20,6 10 5 18 10 NNO 1016,6 30 54 0,0
22.05.2019 19:00:00 20,5 5,0 22,6 13 7 21 12 NO 1016,2 - 59 0,0
22.05.2019 18:00:00 20,8 5,9 24,8 14 8 26 14 NO 1016,2 - 60 0,0
22.05.2019 17:00:00 20,6 5,2 25,5 13 7 27 15 NNO 1016,4 30 60 0,0
22.05.2019 16:00:00 20,5 5,0 26,7 14 8 32 17 NO 1016,5 - 60 0,0
22.05.2019 15:00:00 20,5 5,0 26,4 16 9 33 18 NO 1016,8 - 60 0,0
22.05.2019 14:00:00 20,3 4,5 26,0 20 11 34 18 NO 1017,0 35 60 0,0
22.05.2019 13:00:00 19,4 6,1 25,5 21 12 33 18 NO 1017,3 - 60 0,0
22.05.2019 12:00:00 17,9 7,6 23,5 20 11 31 17 NO 1017,7 - 60 0,0
22.05.2019 11:00:00 16,5 7,8 21,8 16 9 24 13 NO 1018,1 35 60 0,0
22.05.2019 10:00:00 15,5 9,5 21,0 14 7 26 14 NNO 1018,3 - 60 0,0
22.05.2019 09:00:00 13,5 9,7 19,8 8 4 16 9 N 1018,7 - 60 0,0
22.05.2019 08:00:00 11,9 9,8 15,1 5 3 9 5 N 1018,8 25 60 0,0
22.05.2019 07:00:00 8,2 7,0 8,7 3 2 9 5 NW 1019,3 - 25 0,0
22.05.2019 06:00:00 7,6 6,3 3,8 2 1 6 4 N 1019,1 - 0 0,0
22.05.2019 05:00:00 7,9 6,7 4,2 1 1 4 2 WNW 1018,8 - 0 0,0
22.05.2019 04:00:00 8,5 6,7 4,9 2 1 15 8 ZZW 1018,7 - 0 0,0
22.05.2019 03:00:00 8,9 6,7 5,0 6 3 13 7 N 1018,4 - 0 0,0
22.05.2019 02:00:00 8,9 7,3 5,5 2 1 5 3 NNW 1018,2 - 0 0,0
22.05.2019 01:00:00 9,8 7,8 5,7 2 1 5 3 NNW 1018,2 - 0 0,0
22.05.2019 00:00:00 10,5 8,2 6,7 1 1 6 3 ZZW 1018,2 - 0 0,0
21.05.2019 23:00:00 11,4 8,3 7,4 3 1 5 3 WNW 1017,8 30 0 0,0
21.05.2019 22:00:00 12,7 8,5 8,6 3 2 13 7 NNW 1017,1 - 0 0,0
21.05.2019 21:00:00 13,5 9,0 11,5 8 4 22 12 N 1016,4 - 17 0,0
21.05.2019 20:00:00 17,0 7,9 17,5 16 8 25 13 NO 1015,1 30 39 0,0
21.05.2019 19:00:00 17,1 7,8 16,9 16 9 23 13 NO 1014,8 - 9 0,0
21.05.2019 18:00:00 17,7 7,1 18,0 14 8 29 16 NO 1014,5 - 7 0,0
21.05.2019 17:00:00 18,6 8,1 21,7 21 11 30 16 NO 1014,3 30 27 0,0
21.05.2019 16:00:00 17,9 8,5 20,1 20 11 32 18 NO 1014,4 - 19 0,0
21.05.2019 15:00:00 19,0 7,7 26,1 16 9 27 15 NO 1013,7 - 49 0,0
21.05.2019 14:00:00 18,8 8,3 25,7 16 8 26 14 ONO 1013,7 30 58 0,0
21.05.2019 13:00:00 18,2 7,6 26,5 11 6 21 11 O 1014,0 - 43 0,0
21.05.2019 12:00:00 17,0 8,2 26,1 7 4 17 9 ZZO 1014,2 - 24 0,0
21.05.2019 11:00:00 15,4 7,8 18,5 5 3 9 5 O 1014,6 22 31 0,0
21.05.2019 10:00:00 14,4 9,3 16,5 4 2 9 5 WZW 1014,7 - 2 0,0
21.05.2019 09:00:00 13,7 10,5 19,1 3 1 6 3 OZO 1014,4 - 8 0,0
21.05.2019 08:00:00 12,1 10,7 12,9 2 1 18 10 ZZO 1014,3 14 2 0,0
21.05.2019 07:00:00 11,3 9,7 10,6 3 1 6 4 WNW 1014,1 - 0 0,0
21.05.2019 06:00:00 11,4 9,8 10,5 2 1 7 4 NW 1014,0 - 0 0,0
21.05.2019 05:00:00 11,5 9,7 10,6 7 4 11 6 W 1013,7 - 0 0,0
21.05.2019 04:00:00 12,0 9,9 10,9 6 3 8 5 ZZW 1013,4 - 0 0,0
21.05.2019 03:00:00 11,7 10,0 10,9 5 3 9 5 WNW 1013,5 - 0 0,0
21.05.2019 02:00:00 11,6 10,0 10,6 2 1 7 4 N 1013,3 - 0 0,0
21.05.2019 01:00:00 12,0 9,8 10,7 4 2 9 5 N 1013,3 - 0 0,0
21.05.2019 00:00:00 12,5 9,0 11,4 7 4 11 6 W 1012,8 - 0 0,0
20.05.2019 23:00:00 13,2 9,4 11,8 1 1 6 3 W 1012,7 25 0 0,0
20.05.2019 22:00:00 13,1 9,9 12,4 3 1 9 5 N 1012,3 - 0 0,0
20.05.2019 21:00:00 13,3 10,6 12,7 2 1 10 5 NW 1011,5 - 0 0,0
20.05.2019 20:00:00 14,0 10,4 13,9 4 2 18 10 ONO 1011,0 18 0 0,0
20.05.2019 19:00:00 14,6 10,0 15,2 6 3 14 8 NNW 1010,4 - 0 0,0
20.05.2019 18:00:00 14,5 10,5 14,9 5 3 10 5 ZW 1010,1 - 0 0,0
20.05.2019 17:00:00 13,8 11,5 14,0 4 2 12 7 NO 1010,2 14 0 0,2
20.05.2019 16:00:00 14,2 10,6 13,5 5 3 19 10 WZW 1009,9 - 0 0,1
20.05.2019 15:00:00 14,9 9,6 15,4 10 6 17 9 ZZW 1009,4 - 0 0,0
20.05.2019 14:00:00 14,7 9,7 15,7 10 6 17 9 Z 1009,1 50 0 0,0
20.05.2019 13:00:00 14,3 11,4 14,3 9 5 17 9 Z 1008,9 - 0 0,1
20.05.2019 12:00:00 13,4 10,2 13,7 8 4 16 9 ZO 1008,7 - 0 0,0
20.05.2019 11:00:00 14,0 8,7 14,0 4 2 14 7 N 1008,3 50 0 0,0
20.05.2019 10:00:00 13,5 8,8 11,9 5 3 15 8 NW 1007,9 - 0 0,0
20.05.2019 09:00:00 12,4 10,8 11,5 5 3 10 6 NO 1007,8 - 0 0,0
20.05.2019 08:00:00 12,5 11,1 11,7 5 3 9 5 W 1007,1 40 0 0,0
20.05.2019 07:00:00 12,0 11,0 11,2 5 3 12 6 O 1006,7 - 0 0,0
20.05.2019 06:00:00 11,9 11,1 11,1 2 1 11 6 WZW 1006,4 - 0 0,0
20.05.2019 05:00:00 11,8 11,3 11,1 4 2 8 4 ONO 1006,3 - 0 0,0
20.05.2019 04:00:00 11,7 11,1 11,1 3 2 8 4 NW 1006,3 - 0 0,0
20.05.2019 03:00:00 12,1 11,0 11,1 2 1 8 5 NO 1006,3 - 0 0,5
20.05.2019 02:00:00 12,8 10,3 11,7 6 4 9 5 ONO 1006,3 - 0 0,0
20.05.2019 01:00:00 12,7 10,6 11,6 1 0 5 3 NNW 1006,4 - 0 0,0
20.05.2019 00:00:00 13,0 10,4 11,9 2 1 8 5 N 1006,3 - 0 0,0
19.05.2019 23:00:00 13,3 9,9 12,1 5 3 10 5 ONO 1006,1 45 0 0,0
19.05.2019 22:00:00 14,3 9,0 12,2 3 1 9 5 NO 1005,8 - 0 0,0
19.05.2019 21:00:00 13,9 9,8 12,8 5 3 11 6 ONO 1005,3 - 0 0,0

tt = temperatuur
td = dauwpunt
tt 5cm = temperatuur 5cm
ff = windsnelheid
fx = windstoten
dd = windrichting
ppp = luchtdruk
vv = zicht
sd = Zonneschijnduur
rr = neerslag

Weerstations in de omgeving